WY7ATH-2 Weather Reports


time (UTC)temp
C
wind
direction
speed
KPH
gust
KPH
rain 1hr
cm
rain 24hr
cm
rain mn
cm
humidity
%
barometer
mb
20260906212806 26 359 0.0 0.0 0.43 17.96 13.13
20260906205815 25 359 0.0 0.0 0.99 17.96 12.67
20260906204814 26 163 4.8 0.0 0.99 17.96 12.52
20260906202820 26 190 0.0 0.0 0.99 17.96 12.42
20260906201823 27 141 1.6 0.0 0.99 17.96 12.37
20260906194828 28 190 1.6 0.0 1.83 17.96 12.12
20260906192834 26 141 1.6 11.3 1.83 17.96 11.76
20260906190840 28 152 0.0 0.0 1.83 17.96 11.51
20260906185843 28 152 4.8 0.0 1.96 17.96 11.23
20260906184842 27 239 8.0 0.0 1.96 17.96 10.95
20260906183845 29 149 8.0 17.7 1.96 17.96 10.72
20260906182849 31 166 1.6 14.5 1.96 17.96 10.44
20260906181851 32 100 0.0 0.0 1.96 17.96 10.11
20260906171907 27 111 3.2 0.0 2.36 17.96 8.26
20260906170251 27 346 0.0 0.0 2.21 17.96 7.44
20260906165912 27 346 0.0 0.0 2.21 17.96 7.44
20260906164912 27 69 0.0 0.0 2.21 17.96 7.04
20260906163913 26 69 0.0 0.0 2.21 17.96 6.63
20260906162917 26 90 1.6 0.0 2.21 17.96 6.25
20260906162000 26 83 3.2 0.0 2.21 17.96 5.87
20260906161925 26 83 3.2 0.0 2.21 17.96 5.87
20260906155925 26 34 4.8 0.0 1.85 17.96 5.08
20260906154933 24 204 0.0 0.0 1.85 17.96 4.70
20260906153927 25 204 0.0 0.0 1.85 17.96 4.32
20260906152138 26 204 0.0 0.0 1.85 17.96 3.58
20260906151932 26 204 0.0 0.0 1.85 17.96 3.58
20260906150938 26 204 0.0 0.0 1.85 17.96 3.23
20260906145937 25 204 0.0 0.0 0.99 17.96 2.90
20260906144936 25 204 0.0 0.0 0.99 17.96 2.54
20260906142943 20 204 0.0 0.0 0.99 17.96 1.91
20260906141946 21 204 0.0 0.0 0.99 17.96 1.60
20260906135952 18 283 0.0 6.4 0.08 17.96 1.07
20260906133954 16 193 0.0 0.0 0.08 17.96 0.66
20260906132957 17 193 0.0 0.0 0.08 17.96 0.48
20260906132125 15 191 1.6 0.0 0.08 17.96 0.30
20260906132000 15 191 1.6 0.0 0.08 17.96 0.30
20260906125003 12 249 0.0 0.0 0.00 17.96 0.03
20260906124006 12 249 0.0 0.0 0.00 17.96 0.00
20260906123010 12 219 1.6 0.0 0.00 17.96 0.00
20260906115134 12 231 12.9 16.1 0.00 17.96 0.00
20260906115016 12 231 12.9 16.1 0.00 17.96 0.00
20260906113023 12 236 9.7 8.0 0.00 17.96 0.00
20260906105031 12 278 0.0 0.0 0.00 17.96 0.00
20260906104034 13 238 0.0 0.0 0.00 17.96 0.00
20260906102041 12 238 0.0 0.0 0.00 17.96 0.00
20260906101043 11 238 0.0 0.0 0.00 17.96 0.00
20260906100048 11 238 0.0 0.0 0.00 17.96 0.00
20260906095046 11 238 0.0 0.0 0.00 17.96 0.00
20260906094049 11 238 0.0 0.0 0.00 17.96 0.00
20260906093052 11 267 0.0 0.0 0.00 17.96 0.00
20260906084103 12 240 0.0 0.0 0.00 17.96 0.00
20260906082109 12 235 4.8 0.0 0.00 17.96 0.00
20260906080116 11 256 0.0 0.0 0.00 17.96 0.00
20260906075115 11 56 0.0 0.0 0.00 17.96 0.00
20260906073121 12 56 0.0 0.0 0.00 17.96 0.00
20260906072449 13 56 0.0 0.0 0.00 17.96 0.00
20260906072123 13 56 0.0 0.0 0.00 17.96 0.00
20260906071128 13 56 0.0 0.0 0.00 17.96 0.00
20260906070130 13 56 0.0 0.0 0.00 17.96 0.00
20260906065131 13 56 0.0 0.0 0.00 17.96 0.00
20260906064132 13 56 0.0 0.0 0.00 17.96 0.00
20260906062139 13 56 0.0 0.0 0.00 17.96 0.00
20260906061142 14 56 0.0 0.0 0.00 17.96 0.00
20260906060145 13 56 0.0 0.0 0.00 17.96 0.00
20260906054147 13 56 0.0 0.0 0.00 7.29 17.96
20260906053150 13 56 0.0 0.0 0.00 7.29 17.96
20260906052153 14 56 0.0 0.0 0.00 7.29 17.96
20260906051156 13 56 0.0 0.0 0.00 7.29 17.96
20260906050159 14 56 0.0 0.0 0.00 7.29 17.96
20260906045159 14 56 0.0 0.0 0.00 7.29 17.96
20260906044202 15 56 0.0 0.0 0.00 7.29 17.96
20260906043205 14 56 0.0 0.0 0.00 7.29 17.96
20260906042209 14 56 0.0 0.0 0.00 7.29 17.96
20260906041211 15 56 0.0 0.0 0.00 7.29 17.96
20260906034216 16 56 0.0 0.0 0.00 7.29 17.96
20260906033219 17 56 0.0 0.0 0.00 7.29 17.96
20260906031227 17 7 0.0 0.0 0.00 7.29 17.96
20260906022240 19 7 0.0 0.0 0.10 7.29 17.96
20260906013251 18 7 0.0 0.0 0.76 7.29 17.96
20260906010256 21 7 0.0 0.0 0.76 7.29 17.88
20260906004258 21 7 0.0 0.0 0.97 7.29 17.63
20260906003301 22 7 0.0 0.0 0.97 7.29 17.53
20260906001308 24 7 0.0 0.0 0.97 7.29 17.27
20260906000311 25 7 0.0 0.0 0.97 7.29 17.14
20260905235309 26 318 9.7 19.3 1.07 7.29 16.99
20260905234312 26 332 11.3 16.1 1.07 7.29 16.81
20260905232318 25 297 20.9 14.5 1.07 7.29 16.51
20260905231321 26 307 20.9 24.1 1.07 7.29 16.36
20260905230324 27 301 22.5 24.1 1.07 7.29 16.18
20260905224326 28 8 12.9 17.7 1.07 7.29 15.82
20260905223329 29 323 22.5 19.3 1.07 7.29 15.65
20260905222332 29 314 20.9 19.3 1.07 7.29 15.47
20260905220338 27 134 0.0 0.0 1.07 7.29 15.11
20260905214340 27 134 0.0 0.0 1.24 7.29 14.81